Fort Polk, LA

12:48 AM CDT on April 28, 2017 (GMT -0500)
Polk Army Air Field

Weather History for KPOE - October, 2011

Change the Weather History Date:

Friday, October 21, 2011

  Actual Average Record
Temperature  
Mean Temperature 60 °F -  
Max Temperature 78 °F 75 °F 87 °F (2004)
Min Temperature 42 °F 55 °F 42 °F (1999)
Degree Days  
Heating Degree Days 5    
Growing Degree Days 10 (Base 50)    
Moisture  
Dew Point 44 °F    
Average Humidity 58    
Maximum Humidity 90    
Minimum Humidity 27    
Precipitation  
Precipitation 0.00 in - - ()
Sea Level Pressure  
Sea Level Pressure 30.17 in    
Wind  
Wind Speed 2 mph (SE)    
Max Wind Speed 9 mph    
Max Gust Speed -    
Visibility 10 miles    
Events      
Averages and records for this station are not official NWS values.
T = Trace of Precipitation, MM = Missing Value Source: NWS Daily Summary

Daily Weather History Graph

Daily Weather History Graph

Search for Another Location

Airport or City:

Trip Planner

Search our weather history database for the weather conditions in past years. The results will help you decide how hot, cold, wet, or windy it might be!

Date:

Astronomy

Oct. 21, 2011 Rise Set
Actual Time 7:19 AM CDT 6:34 PM CDT
Civil Twilight 6:54 AM CDT 6:59 PM CDT
Nautical Twilight 6:26 AM CDT 7:27 PM CDT
Astronomical Twilight 5:58 AM CDT 7:55 PM CDT
Moon 1:33 AM CDT (10/21) 2:58 PM CDT (10/21)
Length of Visible Light 12h 04m
Length of Day
11h 15m
Waning Crescent, 33% of the Moon is Illuminated
Oct 21
Waning Crescent
Oct 26
New
Nov 2
First Quarter
Nov 10
Full
Nov 18
Last Quarter

Hourly Weather History & Observations

Time (CDT) Temp. Dew Point Humidity Pressure Visibility Wind Dir Wind Speed Gust Speed Precip Events Conditions
12:55 AM 46.9 °F 41.0 °F 80% 30.15 in 10.0 mi Calm Calm - N/A   Clear
1:55 AM - - N/A% - - North - - N/A   Unknown
2:55 AM 46.0 °F 39.9 °F 79% 30.16 in 10.0 mi Calm Calm - N/A   Clear
3:55 AM 45.0 °F 41.0 °F 86% 30.16 in 10.0 mi Calm Calm - N/A   Clear
4:55 AM 45.0 °F 39.9 °F 82% 30.17 in 10.0 mi Calm Calm - N/A   Clear
5:55 AM 45.0 °F 39.9 °F 82% 30.18 in 10.0 mi Calm Calm - N/A   Clear
6:55 AM 42.1 °F 39.0 °F 89% 30.20 in 10.0 mi Calm Calm - N/A   Clear
7:55 AM 45.0 °F 42.1 °F 90% 30.22 in 10.0 mi Calm Calm - N/A   Clear
8:55 AM 55.0 °F 48.0 °F 77% 30.23 in 10.0 mi Calm Calm - N/A   Clear
9:55 AM 64.0 °F 46.0 °F 52% 30.24 in 10.0 mi East 3.5 mph - N/A   Mostly Cloudy
10:55 AM 68.0 °F 44.1 °F 42% 30.24 in 10.0 mi East 5.8 mph - N/A   Mostly Cloudy
11:55 AM 73.0 °F 37.0 °F 27% 30.23 in 10.0 mi ESE 8.1 mph - N/A   Partly Cloudy
12:55 PM 73.9 °F 39.9 °F 29% 30.20 in 10.0 mi Calm Calm - N/A   Clear
1:55 PM 75.9 °F 45.0 °F 33% 30.17 in 10.0 mi Variable 4.6 mph - N/A   Clear
2:55 PM 78.1 °F 46.0 °F 32% 30.15 in 10.0 mi South 5.8 mph - N/A   Clear
3:55 PM 78.1 °F 46.9 °F 33% 30.13 in 10.0 mi SE 3.5 mph - N/A   Clear
4:55 PM 78.1 °F 46.0 °F 32% 30.12 in 10.0 mi Calm Calm - N/A   Clear
5:55 PM 75.9 °F 46.9 °F 36% 30.12 in 10.0 mi ESE 9.2 mph - N/A   Clear
6:55 PM 71.1 °F 46.0 °F 41% 30.13 in 10.0 mi SE 5.8 mph - N/A   Clear
7:55 PM 64.0 °F 46.9 °F 54% 30.14 in 10.0 mi SE 4.6 mph - N/A   Clear
8:55 PM 63.0 °F 46.9 °F 56% 30.15 in 10.0 mi SE 5.8 mph - N/A   Clear
9:55 PM 60.1 °F 48.0 °F 64% 30.16 in 10.0 mi Calm Calm - N/A   Clear
10:55 PM 59.0 °F 46.9 °F 64% 30.17 in 10.0 mi Calm Calm - N/A   Clear
11:55 PM 55.9 °F 48.9 °F 77% 30.16 in 10.0 mi Calm Calm - N/A   Clear